International Skating Union - Official Site

ISU World Cup Stavanger
January 29 - 31, 2016

Draw | Lap Times | Index | World Cup

Referee: Knut Arthur  OLSEN  (NOR)
Starter: Jyrki  JÄÄSKELÄINEN  (FIN)
StartTime: EndTime: Air Temp: Ice Temp: Humidity:
16:35 17:18 18.2℃ -6.1℃ 36%
Result 3000m Ladies Division A
Rankings as of Jan 31 2016 11:29PM
Rank: No.: Name: Nation: Time: Behind: Points:
1 225 Martina  Sábliková CZE CZE 4:00.08200m - 20.05 - (20.0)
600m - 50.20 - (30.1)
1000m - 1:21.11 - (30.9)
1400m - 1:52.30 - (31.1)
1800m - 2:23.87 - (31.5)
2200m - 2:55.68 - (31.8)
2600m - 3:27.69 - (32.0)
3000m - 4:00.08 - (32.3)
100
2 265 Ireen  Wüst NED NED 4:04.15200m - 19.46 - (19.4)
600m - 49.44 - (29.9)
1000m - 1:20.32 - (30.8)
1400m - 1:52.07 - (31.7)
1800m - 2:23.94 - (31.8)
2200m - 2:56.36 - (32.4)
2600m - 3:29.91 - (33.5)
3000m - 4:04.15 - (34.2)
4.07 80
3 259 Irene  Schouten NED NED 4:05.51200m - 20.09 - (20.0)
600m - 51.83 - (31.7)
1000m - 1:24.02 - (32.1)
1400m - 1:56.06 - (32.0)
1800m - 2:28.07 - (32.0)
2200m - 3:00.34 - (32.2)
2600m - 3:32.70 - (32.3)
3000m - 4:05.51 - (32.8)
5.43 70
4 256 Marije  Joling NED NED 4:05.94200m - 19.85 - (19.8)
600m - 50.86 - (31.0)
1000m - 1:22.05 - (31.1)
1400m - 1:54.15 - (32.1)
1800m - 2:27.12 - (32.9)
2200m - 2:59.93 - (32.8)
2600m - 3:32.63 - (32.7)
3000m - 4:05.94 - (33.3)
5.86 60
5 290 Natalya  Voronina RUS RUS 4:07.12200m - 19.87 - (19.8)
600m - 50.95 - (31.0)
1000m - 1:22.58 - (31.6)
1400m - 1:54.40 - (31.8)
1800m - 2:27.10 - (32.7)
2200m - 3:00.10 - (33.0)
2600m - 3:33.57 - (33.4)
3000m - 4:07.12 - (33.5)
7.04 50
6 263 Annouk  van der Weijden NED NED 4:07.58200m - 19.98 - (19.9)
600m - 51.24 - (31.2)
1000m - 1:23.21 - (31.9)
1400m - 1:55.46 - (32.2)
1800m - 2:28.06 - (32.6)
2200m - 3:00.94 - (32.8)
2600m - 3:34.27 - (33.3)
3000m - 4:07.58 - (33.3)
7.50 45
7 285 Olga  Graf RUS RUS 4:08.63200m - 20.83 - (20.8)
600m - 51.35 - (30.5)
1000m - 1:23.26 - (31.9)
1400m - 1:55.52 - (32.2)
1800m - 2:28.27 - (32.7)
2200m - 3:00.93 - (32.6)
2600m - 3:34.46 - (33.5)
3000m - 4:08.63 - (34.1)
8.55 40
8 233 Claudia  Pechstein GER GER 4:08.77200m - 20.17 - (20.1)
600m - 51.78 - (31.6)
1000m - 1:24.39 - (32.6)
1400m - 1:57.08 - (32.6)
1800m - 2:29.68 - (32.6)
2200m - 3:02.59 - (32.9)
2600m - 3:35.67 - (33.0)
3000m - 4:08.77 - (33.1)
8.69 35
9 242 Miho  Takagi JPN JPN 4:09.37200m - 20.34 - (20.3)
600m - 51.95 - (31.6)
1000m - 1:24.00 - (32.0)
1400m - 1:55.93 - (31.9)
1800m - 2:28.70 - (32.7)
2200m - 3:01.80 - (33.1)
2600m - 3:35.18 - (33.3)
3000m - 4:09.37 - (34.1)
9.29 30
10 241 Misaki  Oshigiri JPN JPN 4:10.89200m - 19.85 - (19.8)
600m - 51.67 - (31.8)
1000m - 1:23.83 - (32.1)
1400m - 1:56.51 - (32.6)
1800m - 2:29.59 - (33.0)
2200m - 3:03.07 - (33.4)
2600m - 3:36.94 - (33.8)
3000m - 4:10.89 - (33.9)
10.81 25
11 214 Isabelle  Weidemann CAN CAN 4:11.00200m - 21.18 - (21.1)
600m - 53.42 - (32.2)
1000m - 1:26.27 - (32.8)
1400m - 1:58.86 - (32.5)
1800m - 2:31.14 - (32.2)
2200m - 3:03.84 - (32.7)
2600m - 3:36.97 - (33.1)
3000m - 4:11.00 - (34.0)
10.92 21
12 205 Ivanie  Blondin CAN CAN 4:11.19200m - 20.15 - (20.1)
600m - 51.16 - (31.0)
1000m - 1:23.18 - (32.0)
1400m - 1:55.49 - (32.3)
1800m - 2:28.32 - (32.8)
2200m - 3:01.50 - (33.1)
2600m - 3:35.61 - (34.1)
3000m - 4:11.19 - (35.5)
11.11 18
13 287 Elizaveta  Kazelina RUS RUS 4:11.96200m - 19.74 - (19.7)
600m - 50.71 - (30.9)
1000m - 1:22.77 - (32.0)
1400m - 1:55.67 - (32.9)
1800m - 2:29.22 - (33.5)
2200m - 3:03.29 - (34.0)
2600m - 3:37.69 - (34.4)
3000m - 4:11.96 - (34.2)
11.88 16
14 272 Ida  Njåtun NOR NOR 4:12.21200m - 20.01 - (20.0)
600m - 51.63 - (31.6)
1000m - 1:24.11 - (32.4)
1400m - 1:56.56 - (32.4)
1800m - 2:29.78 - (33.2)
2200m - 3:03.51 - (33.7)
2600m - 3:37.93 - (34.4)
3000m - 4:12.21 - (34.2)
12.13 14
15 212 Josie  Spence CAN CAN 4:15.48200m - 20.20 - (20.2)
600m - 52.18 - (31.9)
1000m - 1:24.50 - (32.3)
1400m - 1:57.58 - (33.0)
1800m - 2:31.19 - (33.6)
2200m - 3:05.33 - (34.1)
2600m - 3:40.14 - (34.8)
3000m - 4:15.48 - (35.3)
15.40 12
16 222 Xin  Zhao CHN CHN 4:16.25200m - 20.73 - (20.7)
600m - 52.93 - (32.2)
1000m - 1:26.45 - (33.5)
1400m - 1:59.11 - (32.6)
1800m - 2:32.06 - (32.9)
2200m - 3:05.87 - (33.8)
2600m - 3:40.76 - (34.8)
3000m - 4:16.25 - (35.4)
16.17 10